www.pogodaiklimat.ru

Погода и климат >> Архив погоды >> Россия >> Ханты-Мансийский АО >> Нефтеюганск


ПОГОДА в Нефтеюганске

АРХИВ ПОГОДЫ в Нефтеюганске

Время (UTC), дата Ветер
(напр.,м/с)
 
Видим.   Явления Облачность Т
(С)
Тd
(С)
f
(%)
Тe
(С)
Тes
(С)
Комфортность P
(гПа)
Po
(гПа)
Тmin
(С)
Tmax
(С)
R
(мм)
R24
(мм)
S
(см)
09 19.06 Ю 8
{15}
50 км 9 баллов +21.5 +11.2 52 +23 +24 комфорт 996.6 992.0
12 19.06 Ю 5
{15}
50 км в посл. час ливневой дождь 7 баллов +22.2 +10.0 46 +24 +25 комфорт 996.6 992.0
15 19.06 ЮВ 4
{17}
50 км {ливн. осадки, метель} 9/4 600 м
[Cb cap Ac trans]
+18.3 +11.4 64 +18 +19 тепло 995.5 990.9 +25.4 0.0
18 19.06 Ю 3
{12}
20 км 4 балла +18.0 +12.4 70 +18 +18 тепло 996.6 992.0
21 19.06 ЮВ 4
{10}
20 км ясно +16.9 +10.6 66 +16 +16 тепло 993.7 989.1
00 20.06 Ю 6
{11}
50 км ясно +17.5 +10.8 65 +17 +17 тепло 993.9 989.3
03 20.06 Ю 6-10
{16}
50 км 8/3 600 м
[Cu med, cong Ac trans Ci fib]
+19.8 +11.4 58 +21 +22 комфорт 992.0 987.4 +16.7
06 20.06 Ю 6
{15}
50 км 9 баллов +21.2 +10.7 51 +23 +23 комфорт 992.6 988.0
09 20.06 Ю 8
{17}
50 км 9 баллов +21.8 +8.0 41 +23 +23 комфорт 993.9 989.3
12 20.06 ЮЗ 3
{14}
50 км в посл. час ливневой дождь 9 баллов +17.9 +11.7 67 +18 +18 по сезону 993.9 989.3
15 20.06 ЮВ 4
{17}
50 км {ливн. осадки} 9/6 600 м
[Cb cap Ac cuf]
+17.3 +12.8 75 +17 +17 по сезону 992.1 987.5 +22.5 0.4
18 20.06 Ю 4
{13}
20 км 10 баллов +15.8 +10.8 72 +15 +15 тепло 994.0 989.3
21 20.06 ЮЗ 4
{10}
10 км слабый ливневой дождь 10 баллов +13.4 +11.5 88 +12 +12 по сезону 994.0 989.3
00 21.06 ЮЗ 4 50 км в посл. час ливневой дождь 10 баллов +13.4 +11.6 89 +12 +12 по сезону 994.0 989.3
03 21.06 ЮЗ 3
{10}
50 км {ливн. осадки} 10/8 200 м
[Cb cap Ac und]
+14.2 +10.3 77 +13 +14 по сезону 995.0 990.3 +13.1 1
06 21.06 ЮЗ 3 50 км {ливн. осадки} 10/10 600 м
[Cb cap]
+15.5 +11.1 75 +15 +15 прохладно 996.0 991.3
09 21.06 ЮЗ 4 50 км 9/5 600 м
[Cb cap Ac trans]
+18.0 +12.0 68 +18 +20 по сезону 996.4 991.8
12 21.06 З 3 50 км 8/3 600 м
[Cu med, cong Ci fib]
+20.3 +10.4 53 +22 +25 комфорт 996.8 992.1
15 21.06 В 1
{9}
50 км 9 баллов +19.4 +14.2 72 +22 +22 комфорт 997.9 993.3 +21.2
18 21.06 В 1 20 км 9/5 600 м
[Cb cap Ac trans Ci fib]
+14.7 +13.2 91 +15 +15 тепло 997.9 993.2
21 21.06 Ю 1 20 км 8/0
[Ac trans Ci fib]
+14.6 +12.8 89 +15 +15 тепло 998.2 993.5
00 22.06 ЮВ 2 50 км 4/0
[Ci fib]
+15.6 +14.1 91 +15 +16 тепло 998.7 994.0
03 22.06 ЮВ 1
{4}
50 км 4/0
[Ci sp]
+19.9 +14.2 70 +23 +30 комфорт 999.9 995.3 +13.0
06 22.06 Ю 2 50 км 1/1 600 м
[Cu hum]
+23.6 +13.6 53 +26 +38 жарко 1000.5 995.9
09 22.06 ЮВ 2 50 км 4/3 600 м
[Cu med, cong Ci fib]
+26.1 +13.1 45 +28 +36 жарко 1000.6 996.1
12 22.06 З 2 50 км 5/3 600 м
[Cu med, cong Ci fib]
+26.1 +10.7 38 +27 +30 жарко 1001.2 996.6
15 22.06 СЗ 2
{5}
50 км 5 баллов +24.0 +12.9 50 +26 +26 жарко 1003.3 998.7 +27.6
18 22.06 СЗ 1 20 км 3/0
[Ac trans Ci fib]
+16.7 +14.3 86 +18 +18 тепло 1003.8 999.1
21 22.06 З 1 20 км 5/0
[Ac trans Ci fib]
+14.6 +13.2 91 +15 +15 тепло 1004.4 999.7
00 23.06 штиль 0 50 км 8/0
[Ci fib]
+18.1 +16.2 89 +18 +19 тепло 1005.0 1000.3
03 23.06 ЮВ 2
{4}
50 км 8/0
[Ci fib]
+23.1 +14.1 57 +27 +32 душно 1005.7 1001.1 +13.7
06 23.06 Ю 3 50 км 5/3 600 м
[Cu med, cong Ci fib]
+27.5 +13.1 41 +29 +36 жарко 1005.3 1000.8
09 23.06 Ю 2 50 км 4/4 600 м
[Cu med, cong]
+28.5 +11.6 35 +29 +37 жарко 1004.8 1000.3
12 23.06 Ю 3 50 км 8/3 600 м
[Cu med, cong Ci fib]
+28.8 +11.8 35 +30 +32 жарко 1004.0 999.4
15 23.06 Ю 1
{7}
50 км 9 баллов +25.7 +14.2 49 +28 +28 жарко 1004.6 1000.0 +29.5
18 23.06 ЮВ 1 20 км 8/0
[Ac trans Ci fib]
+20.9 +18.2 85 +26 +26 душно 1004.1 999.5
21 23.06 Ю 1 20 км 8/0
[Ac trans Ci fib]
+20.6 +16.3 76 +25 +25 комфорт 1003.9 999.2
00 24.06 Ю 2 50 км 8/0
[Ac trans Ci fib]
+20.5 +16.2 76 +24 +25 комфорт 1003.6 999.0
03 24.06 ЮВ 1
{3}
50 км 9 баллов +22.6 +15.9 66 +27 +28 душно 1004.6 1000.0 +20.0
06 24.06 В 2 50 км гроза без осадков 9/8 600 м
[Cb cap Ci sp]
+25.2 +14.6 52 +28 +30 жарко 1003.0 998.4
09 24.06 ЮВ 2 10 км гроза, ливневой дождь 9/6 600 м
[Cb cap Ac trans Ci fib]
+22.0 +17.3 75 +26 +30 душно 1002.3 997.7
12 24.06 СЗ 1 50 км 9 баллов +20.8 +16.2 75 +25 +26 комфорт 1003.3 998.7
15 24.06 Ю 2
{7}
10 км слабый ливневой дождь 10/8 600 м
[Cb cap Ac und]
+18.5 +16.2 86 +20 +20 тепло 1002.6 997.9 +26.7 4
18 24.06 З 2 10 км слабый ливневой дождь 10/6 600 м
[Cb cap Ac und]
+17.3 +15.3 88 +18 +18 тепло 1001.8 997.1
21 24.06 Ю 2 10 км слабый дождь {ливн. осадки} 10/4 300 м
[Frnb As op]
+17.2 +15.7 91 +18 +18 тепло 1001.4 996.7
00 25.06 ЮЗ 2 50 км 10 баллов +17.2 +15.7 91 +18 +18 тепло 1002.0 997.3
03 25.06 З 3
{7}
50 км 5 баллов +19.8 +15.0 74 +22 +25 комфорт 1001.9 997.3 +17.0 4
06 25.06 З 7
{11}
50 км 4 балла +21.5 +7.3 40 +22 +25 комфорт 1003.3 998.7
09 25.06 З 4
{10}
50 км 5/4 600 м
[Cu med, cong Ci fib]
+22.8 +9.7 43 +24 +29 комфорт 1003.6 999.0
12 25.06 З 4 50 км 3/3 600 м
[Cu med, cong Ci fib]
+23.0 +9.9 43 +25 +27 комфорт 1004.4 999.8
15 25.06 СЗ 2
{11}
50 км 2 балла +21.2 +7.8 42 +22 +23 комфорт 1005.9 1001.3 +23.2
18 25.06 ЮВ 1 20 км 3/0
[Ac trans]
+13.4 +11.7 89 +14 +14 по сезону 1005.7 1000.9
21 25.06 В 1 20 км 3/0
[Ci fib]
+13.4 +12.3 93 +14 +14 по сезону 1005.9 1001.1
00 26.06 ЮВ 3 50 км 8/0
[Ci fib]
+18.4 +13.6 74 +19 +20 тепло 1005.1 1000.4
03 26.06 В 5
{8}
50 км 9/6 600 м
[Cu med, cong Ci fib]
+20.5 +11.1 55 +22 +23 комфорт 1004.3 999.7 +13.0
06 26.06 ЮВ 5 50 км 8/3 600 м
[Cu med, cong Ac trans Ci fib]
+25.4 +11.3 41 +27 +30 жарко 1002.7 998.2

 

Местоположение метеостанции Нефтеюганск (Ханты-Мансийский АО, Россия): широта 61.07 долгота 72.62 высота над уровнем моря 40 м.

В архиве по умолчанию представлена погода в Нефтеюганске за последнюю неделю. Архивные данные за месяц целиком и за предыдущие месяцы, начиная с января 2011 года, Вы можете получить, выбрав интересующий диапазон дат из раскрывающегося списка и нажав кнопку "Ввод!".

Внимание! Время в таблицах - всемирное. Для получения местного времени необходимо прибавить поправку, которая в Нефтеюганске равна 5 ч.

Смотрите также архив погоды в соседних городах и на ближайших метеорологических станциях:

Погода в Сургуте (Ханты-Мансийский АО, Россия) (52 км)
Погода в Сытомино (Ханты-Мансийский АО, Россия) (75 км)
Погода в Угуте (Ханты-Мансийский АО, Россия) (99 км)
Погода в Салыме (Ханты-Мансийский АО, Россия) (127 км)
Погода в Когалыме (Ханты-Мансийский АО, Россия) (164 км)
Погода в Таурово (Ханты-Мансийский АО, Россия) (170 км)
Погода в Ханты-Мансийске (Ханты-Мансийский АО, Россия) (188 км)
Погода в Нижнесортымском (Ханты-Мансийский АО, Россия) (193 км)
Погода в Алтае (Ханты-Мансийский АО, Россия) (215 км)
Погода в Нижневартовске (Ханты-Мансийский АО, Россия) (215 км)

Пояснения к столбцам:

Ветер - указаны скорость ветра в м/с - средняя за 10 мин, порывы в срок и между сроками (в фигурных скобках) и направление, откуда дует ветер: С - северный, СВ - северо-восточный, В - восточный, ЮВ - юго-восточный, Ю - южный, ЮЗ - юго-западный, З - западный, СЗ - северо-западный.
Видимость - горизонтальная дальность видимости в метрах или километрах. При видимости от 1 до 10 км при отсутствии осадков обычно наблюдается дымка, при ухудшении видимости до 1 км и менее - туман. В сухую погоду видимость может ухудшаться дымом, пылью или мглою.
Явления - указаны атмосферные явления, наблюдавшиеся в срок или в последний час перед сроком; фигурными скобками обозначены явления, наблюдавшиеся между сроками (за 1-3 часа до срока); квадратными скобками обозначены град или гололедные отложения с указанием их диаметра в мм.
Облачность - указаны через наклонную черту общая и нижняя облачность в баллах и высота нижней границы облаков в метрах; квадратными скобками обозначены формы облаков: Ci - перистые, Cs - перисто-слоистые, Cc - перисто-кучевые, Ac - высококучевые, As - высокослоистые, Sc - слоисто-кучевые, Ns - слоисто-дождевые, Cu - кучевые, Cb - кучево-дождевые. Подробнее классификацию облаков см. в Атласе облаков (PDF).
T - Температура воздуха - температура, измеренная на высоте 2 м над землей.
Td - Температура точки росы - температура, при понижении до которой содержащийся в воздухе водяной пар достигнет насыщения.
f - Относительная влажность воздуха - влажноcть воздуха, измеренная на высоте 2 м над землей.
Te - Эффективная температура - температура, которую ощущает одетый по сезону человек в тени. Характеристика душности погоды. При расчете учитывается влияние влажности воздуха и скорости ветра на теплоощущения человека.
Tes - Эффективная температура на солнце - температура, которую ощущает человек, с поправкой на солнечный нагрев. Характеристика знойности погоды. Зависит от высоты солнца над горизонтом, облачности и скорости ветра. Ночью, в пасмурную погоду, а также при ветре 12 м/с и более поправка равна нулю.
P - Атмосферное давление - приведенное к уровню моря атмосферное давление.
Po - Атмосферное давление - измеренное на уровне метеостанции атмосферное давление.
Tmin - Минимальная температура - минимум температуры воздуха на высоте 2 м над землей.
Tmax - Максимальная температура - максимум температуры воздуха на высоте 2 м над землей.
R - Количество осадков - Количество выпавших осадков за период времени, мм. При наведении курсора мыши на число - период времени, за который выпало указанное количество осадков.
R24 - Количество осадков - Количество выпавших осадков за 24 часа, мм.
S - Снежный покров - Высота снежного покрова, см. При наведении курсора мыши на число - состояние снежного покрова и степень покрытия местности в баллах.